DW0479 Weather Reports


Display with metric or nautical units.
time (UTC)temp
F
wind
direction
speed
MPH
gust
MPH
rain 1hr
in
rain 24hr
in
rain mn
in
humidity
%
barometer
mb
20260504020841 71 55 1.0 3.0 0.00 0.12 0.12 77 1016.8
20260504014908 71 55 3.0 7.0 0.00 0.12 0.12 76 1016.7
20260504013908 71 56 3.0 7.0 0.00 0.12 0.12 75 1016.7
20260504012910 72 51 3.0 6.0 0.00 0.12 0.12 75 1016.8
20260504011907 72 51 3.0 6.0 0.00 0.12 0.12 75 1016.7
20260504010907 72 55 3.0 6.0 0.00 0.12 0.12 75 1016.6
20260504005902 72 55 3.0 10.0 0.00 0.12 0.12 75 1016.4
20260504004901 72 54 4.0 9.0 0.00 0.12 0.12 74 1016.2
20260504003902 72 63 3.0 11.0 0.00 0.12 0.12 73 1016.1
20260504002848 72 65 3.0 6.0 0.00 0.12 0.12 73 1016.1
20260504001848 73 36 4.0 8.0 0.00 0.12 0.12 72 1016.1
20260504000846 73 56 4.0 9.0 0.00 0.12 0.12 71 1015.9
20260503235847 73 66 4.0 8.0 0.00 0.12 0.12 71 1015.8
20260503234854 74 81 3.0 8.0 0.00 0.12 0.12 70 1015.7
20260503233848 74 55 4.0 10.0 0.00 0.12 0.12 71 1015.8
20260503233322 74 56 4.0 9.0 0.00 0.12 0.12 70 1015.7
20260503232339 74 58 4.0 11.0 0.00 0.12 0.12 70 1015.7
20260503230846 75 59 5.0 10.0 0.00 0.13 0.12 69 1015.6
20260503225847 75 70 4.0 12.0 0.00 0.13 0.12 68 1015.6
20260503224845 76 50 4.0 9.0 0.00 0.13 0.12 68 1015.7
20260503223845 76 10 5.0 12.0 0.00 0.13 0.12 69 1015.6
20260503222846 76 50 3.0 9.0 0.00 0.13 0.12 68 1015.5
20260503221844 76 76 4.0 10.0 0.00 0.13 0.12 68 1015.5
20260503220846 76 20 4.0 11.0 0.00 0.13 0.12 69 1015.6
20260503215844 76 34 4.0 9.0 0.00 0.14 0.12 69 1015.5
20260503215412 76 70 4.0 10.0 0.00 0.14 0.12 69 1015.5
20260503215258 76 94 4.0 11.0 0.00 0.16 0.12 68 1015.3
20260503215107 76 79 4.0 14.0 0.00 0.16 0.12 67 1015.3
20260503205845 77 84 5.0 12.0 0.00 0.17 0.12 66 1015.4
20260503204846 77 22 6.0 13.0 0.00 0.17 0.12 65 1015.5
20260503203845 78 54 5.0 13.0 0.00 0.17 0.12 65 1015.6
20260503203315 79 78 5.0 11.0 0.00 0.17 0.12 62 1015.5
20260503201840 79 38 5.0 10.0 0.00 0.18 0.12 65 1015.5
20260503200838 79 82 5.0 12.0 0.00 0.18 0.12 65 1015.7
20260503195839 81 88 5.0 12.0 0.00 0.18 0.12 60 1015.8
20260503194839 80 327 6.0 13.0 0.00 0.18 0.12 63 1015.8
20260503194753 79 10 5.0 12.0 0.00 0.18 0.12 64 1016.1
20260503192834 80 92 4.0 11.0 0.00 0.18 0.12 63 1016.2
20260503191832 81 100 6.0 11.0 0.00 0.18 0.12 62 1016.3
20260503190834 81 356 5.0 11.0 0.00 0.18 0.12 61 1016.6
20260503185835 79 57 5.0 14.0 0.00 0.18 0.12 66 1016.8
20260503184819 80 91 7.0 15.0 0.00 0.18 0.12 66 1016.9
20260503183819 79 5 6.0 12.0 0.00 0.18 0.12 66 1017.0
20260503182818 79 15 6.0 13.0 0.00 0.18 0.12 70 1017.1
20260503182307 78 5 6.0 13.0 0.00 0.18 0.12 69 1017.2
20260503180820 78 42 5.0 12.0 0.00 0.18 0.12 69 1017.4
20260503175813 77 65 5.0 12.0 0.00 0.18 0.12 69 1017.5
20260503174812 76 96 5.0 10.0 0.00 0.18 0.12 72 1017.7
20260503174253 75 31 6.0 13.0 0.00 0.18 0.12 73 1017.7
20260503172814 75 5 5.0 10.0 0.00 0.18 0.12 74 1017.8
20260503171759 74 19 6.0 14.0 0.00 0.18 0.12 73 1017.8
20260503170756 74 15 6.0 13.0 0.00 0.18 0.12 74 1017.6
20260503150725 69 52 3.0 10.0 0.00 0.18 0.12 86 1018.3
20260503130653 66 46 6.0 14.0 0.00 0.18 0.12 91 1016.9
20260503110634 65 20 5.0 11.0 0.00 0.18 0.12 95 1015.6
20260503081601 66 5 6.0 14.0 0.01 0.16 0.10 95 1014.7
20260503080602 66 31 6.0 11.0 0.01 0.16 0.10 95 1014.7
20260503072601 67 54 5.0 12.0 0.02 0.15 0.09 95 1014.2
20260503071600 67 83 5.0 11.0 0.03 0.15 0.09 95 1014.4
20260503070601 68 19 5.0 10.0 0.03 0.15 0.09 95 1014.6
20260503054600 71 259 1.0 3.0 0.02 0.12 0.06 95 1014.2
20260503053550 71 260 2.0 7.0 0.02 0.11 0.05 95 1014.4
20260503052550 71 219 4.0 7.0 0.03 0.11 0.05 95 1014.6
20260503051548 71 254 3.0 5.0 0.05 0.11 0.05 95 1014.6
20260503050551 71 242 2.0 7.0 0.04 0.10 0.04 95 1014.8
20260503050021 71 232 2.0 5.0 0.04 0.10 0.04 94 1014.8
20260503044543 71 254 2.0 8.0 0.04 0.10 0.04 94 1014.8
20260503043543 71 283 3.0 8.0 0.03 0.09 0.03 93 1014.7
20260503042544 71 269 2.0 9.0 0.02 0.08 0.02 93 1014.5
20260503041543 71 286 3.0 7.0 0.00 0.06 0.00 92 1014.5
20260503040532 72 247 0.0 3.0 0.00 0.06 0.00 91 1014.1
20260503035533 72 248 0.0 1.0 0.00 0.06 0.06 90 1013.7
20260503035021 72 247 2.0 4.0 0.00 0.06 0.06 89 1013.6
20260503033531 72 248 2.0 5.0 0.00 0.06 0.06 89 1013.5
20260503032532 72 266 3.0 7.0 0.00 0.06 0.06 89 1013.4
20260503031529 72 255 4.0 9.0 0.00 0.06 0.06 89 1013.4
20260503030528 72 243 3.0 8.0 0.00 0.06 0.06 90 1013.3
20260503030018 72 262 4.0 7.0 0.00 0.06 0.06 90 1013.1
20260503024523 72 264 3.0 7.0 0.00 0.06 0.06 91 1013.2
20260503023523 72 267 2.0 4.0 0.00 0.06 0.06 91 1012.9
20260503022522 72 267 2.0 4.0 0.00 0.06 0.06 92 1012.6
20260503021525 72 273 2.0 6.0 0.00 0.06 0.06 92 1012.5